Location: Poughquag
(41.6090°N, 73.6820°W)
Time: 05:43:49
(UTC-04:00)

ITUPSAT 1 - Pass Details

Date: 28 June 2024
Orbit: 695 x 705 km, 98.5° (Epoch: 24 July)

Event Time Altitude Azimuth Distance (km) Brightness Sun altitude
Rises 21:54:14 0° 32° (NNE) 3,106 ? -12.5°
Reaches altitude 10° 21:57:21 10° 53° (NE) 2,181 ? -12.8°
Maximum altitude 22:00:17 16° 92° (E) 1,790 ? -13.2°
Enters shadow 22:01:21 15° 107° (ESE) 1,842 ? -13.3°
